Location: Culot-des-Bois
(50.2905°N, 4.2468°E)
Time: 11:47:19
(UTC+00:00)

Daily predictions for brighter satellites

Satellite Brightness Start Highest point End
(mag) Time Altitude Azimuth Time Altitude Azimuth Time Altitude Azimuth
NOSS 3-2 (A) 4.0 19:31:58 10° S 19:36:57 32° ESE 19:42:30 10° NE
Cosmos 1697 Rocket 3.1 19:31:52 10° NNW 19:37:28 68° WSW 19:43:01 10° SSE
Sich 1 3.1 19:35:22 10° S 19:39:45 64° E 19:44:10 10° NNE
USA 267 4.2 19:35:08 10° ENE 19:40:08 23° SE 19:45:07 10° S
H-2A R/B 3.7 19:38:07 10° SSW 19:42:44 34° W 19:47:17 10° NNW
Cosmos 405 Rocket 4.4 19:43:06 10° SE 19:45:20 15° E 19:47:36 10° NE
Cosmos 389 Rocket 3.7 19:42:25 10° NNW 19:45:43 43° W 19:49:01 10° SSW
Cosmos 1862 Rocket 4.1 19:41:42 10° N 19:45:58 42° ENE 19:50:11 10° SE
NOSS 3-2 (C) 4.4 19:42:02 10° SSE 19:46:29 24° ESE 19:51:22 10° ENE
Cosmos 1812 3.3 19:43:35 10° NNW 19:47:24 61° W 19:51:11 10° S
Cosmos 2333 Rocket 4.4 19:47:58 10° N 19:51:03 14° NNE 19:54:07 10° ENE
Cosmos 1934 Rocket 4.3 19:45:01 10° SSE 19:51:09 52° E 19:57:18 10° NNE
ERBS 4.3 19:48:27 10° WNW 19:51:22 27° N 19:54:17 10° NE
Resurs 01 Rocket 1.7 19:48:59 10° SSE 19:53:20 63° ENE 19:57:45 10° N
NOSS 2 (A) 4.0 19:51:32 10° NW 19:54:13 86° NE 19:56:24 12° SE
Meteor 2-20 4.5 19:49:39 10° N 19:55:51 78° ENE 20:01:59 10° SSE
Cosmos 676 Rocket 4.2 19:53:40 10° S 19:58:47 50° ESE 20:03:57 10° NNE
Meteor 1-27 Rocket 4.0 19:53:17 10° NNW 19:59:14 79° W 20:05:10 10° S
ERS-1 Rocket 4.3 19:56:19 10° ESE 20:00:22 25° ENE 20:04:26 10° N
GP-B 3.7 19:56:17 10° NNE 20:00:27 37° E 20:04:34 10° SSE
Okean 1 4.4 19:59:25 10° N 20:03:01 30° ENE 20:06:08 13° SE
Cosmos 1441 Rocket 4.0 20:00:02 10° SSW 20:03:43 53° WNW 20:07:24 10° N
Cosmos 192 4.4 20:00:23 10° NNW 20:05:19 89° ENE 20:10:15 10° SSE
OPS 6432 4.4 20:01:49 10° SW 20:05:52 69° SE 20:09:03 10° NE
DMSP B5D2-2 4.3 20:03:12 10° NNE 20:08:27 77° WNW 20:13:41 10° SSW
SPOT 3 Rocket 3.8 20:04:01 10° S 20:09:13 72° WSW 20:14:26 10° NNW
BREEZE-M DEB (TANK) 1.6 20:07:13 10° W 20:10:19 71° S 20:11:50 15° E
Cosmos 468 Rocket 4.3 20:05:44 10° NNW 20:10:58 54° ENE 20:15:29 13° SE
Cosmos 1867 3.5 20:06:26 10° SSW 20:11:51 72° SE 20:17:19 10° NE
Cosmos 1821 Rocket 4.3 20:07:29 10° SSW 20:13:38 73° WNW 20:19:56 10° N
Cosmos 1933 Rocket 4.3 20:10:16 10° SSE 20:14:14 34° E 20:18:15 10° NNE
Cosmos 1666 Rocket 3.6 20:10:17 10° S 20:14:36 86° W 20:19:00 10° N
SL-4 R/B 1.8 20:11:36 10° WSW 20:15:37 86° SSE 20:19:20 10° ENE
ATLAS 3B R/B 4.0 20:14:38 13° SE 20:17:03 16° ESE 20:20:44 10° ENE
USA 234 3.6 20:11:09 10° E 20:17:37 66° NNE 20:24:05 10° WNW
IGS 5A 3.7 20:15:47 13° SE 20:19:15 52° ENE 20:23:18 10° N
deb Kosmos-1763 4.5 20:24:05 10° SSW 20:27:41 65° WNW 20:31:21 10° NNE
MetOp-B 4.1 20:22:39 10° SSE 20:28:00 86° ENE 20:33:24 10° NNW
Cosmos 1954 Rocket 4.0 20:23:03 10° SSW 20:28:23 83° ESE 20:33:44 10° NNE
Cosmos 2219 Rocket 4.2 20:26:01 10° N 20:29:58 19° NE 20:33:53 10° ENE
SL-16 R/B 2.4 20:24:20 10° NNW 20:30:00 61° NE 20:34:14 18° SE
Spot 2 Rocket 3.5 20:25:34 14° SSE 20:30:01 70° ENE 20:35:06 10° N
CZ-2C R/B 3.6 20:25:46 10° N 20:30:45 49° WNW 20:35:45 10° SW
Okean 1-7 3.6 20:29:21 10° N 20:33:28 41° ENE 20:35:59 20° SE
Cosmos 1703 Rocket 3.9 20:30:21 10° N 20:34:35 47° ENE 20:37:16 20° SE
Cosmos 2123 Rocket 4.3 20:29:10 10° NNW 20:35:20 68° W 20:41:32 10° S
USA 238 DEB 3.6 20:29:12 10° SSW 20:35:46 71° SE 20:42:41 10° NE
USA 238 3.6 20:29:19 10° SSW 20:35:53 70° SE 20:42:48 10° NE
ATLAS 5 CENTAUR R/B 2.9 20:34:05 10° NNW 20:36:13 28° NE 20:39:34 12° E
Meteor 1-18 Rocket 4.2 20:34:03 10° N 20:39:40 73° ENE 20:44:01 17° SSE
Cosmos 2082 Rocket 2.6 20:35:20 10° SW 20:41:00 67° WNW 20:46:41 10° NNE
Lacrosse 5 2.0 20:37:17 10° WNW 20:42:19 67° SW 20:45:36 22° SE
Meteor 1-25 Rocket 4.1 20:36:52 10° S 20:42:26 78° E 20:48:06 10° NNE
Terra 2.7 20:40:06 19° ESE 20:42:48 34° ENE 20:47:06 10° N
Cosmos 1633 Rocket 3.8 20:39:01 10° SSW 20:43:21 54° WNW 20:47:42 10° N
USA 276 2.1 20:42:42 10° W 20:45:51 64° SSW 20:47:07 32° ESE
Cosmos 1238 Rocket 1.9 20:44:11 18° S 20:46:12 81° E 20:49:13 10° N
CENTAUR R/B 2.6 20:40:36 10° SSW 20:46:22 54° ESE 20:53:12 10° NE
Cosmos 1605 Rocket 3.9 20:41:27 10° S 20:47:34 84° E 20:53:42 10° N
Cosmos 2322 Rocket 2.3 20:43:04 10° NNW 20:48:47 68° ENE 20:52:29 22° SE
Cosmos 1763 Rocket 3.5 20:43:25 10° NNW 20:48:47 89° ENE 20:52:27 21° SSE
X-37B 1.7 20:47:15 10° WSW 20:50:01 27° S 20:50:24 27° S
Cosmos 921 Rocket 3.9 20:50:29 10° NNW 20:54:29 43° WSW 20:57:43 15° S
FALCON 9 DEB 3.5 20:51:38 10° W 20:55:07 65° NNW 20:58:37 10° ENE
H-2A R/B 3.5 20:52:16 10° NNE 20:56:25 78° WNW 21:00:33 10° SSW
Cosmos 2173 Rocket 4.5 20:52:59 21° SE 20:56:32 41° E 21:02:12 10° NNE
OBJECT-B 3.7 20:56:26 10° WSW 20:58:11 14° W 20:59:57 10° WNW
Cosmos 2084 Rocket 3.6 20:54:15 10° SSW 20:58:16 46° SE 21:02:24 10° NE
Cosmos 2242 Rocket 3.7 20:54:19 10° NNW 20:58:45 76° W 21:01:46 20° S
Cosmos 2360 Rocket 2.7 20:53:49 10° NNW 20:59:21 49° NE 21:02:39 23° ESE
Cosmos 1500 3.9 20:59:53 31° ESE 21:00:38 34° E 21:04:04 10° NNE
Cosmos 44 3.3 20:58:57 10° NW 21:03:52 90° WSW 21:06:35 28° SE
SWARM A 4.3 21:02:32 10° N 21:05:51 61° E 21:06:42 42° SE
Cosmos 1602 3.8 21:03:29 15° SSW 21:06:39 78° W 21:10:37 10° N
Cosmos 1980 Rocket 3.9 21:03:05 10° NW 21:07:44 27° WSW 21:12:21 10° SSW
SAR-Lupe-2 3.9 21:06:01 10° NNE 21:09:31 46° E 21:10:12 40° SE
Cosmos 1470 Rocket 4.4 21:06:54 10° SSW 21:11:11 49° WNW 21:15:28 10° N
Cosmos 1666 4.1 21:11:57 22° E 21:11:57 22° E 21:14:44 10° NE
Cosmos 1459 Rocket 4.2 21:08:09 23° SSE 21:11:54 53° E 21:18:04 10° NNE
Cosmos 1242 Rocket 4.2 21:13:16 10° NNE 21:16:07 21° ENE 21:16:36 21° E
COSMOS 2428 4.1 21:13:19 10° NNW 21:18:19 29° NE 21:21:52 16° E
Cosmos 2221 Rocket 4.1 21:15:51 10° N 21:20:10 44° ENE 21:21:32 34° ESE
Cosmos 405 Rocket 3.6 21:17:27 11° SSW 21:20:56 47° WNW 21:24:36 10° N
SL-27 R/B 2.1 21:20:03 45° S 21:20:57 80° ESE 21:24:16 10° NNE
SPOT 5 2.5 21:19:54 33° SSE 21:21:49 86° WSW 21:26:16 10° NNW
Cosmos 967 Rocket 4.4 21:16:07 10° NW 21:22:32 87° SW 21:25:52 30° SE
Cosmos 1437 Rocket 3.3 21:20:01 10° NNW 21:23:42 50° W 21:25:21 28° SSW
USA 267 3.2 21:17:25 10° ENE 21:23:58 69° SE 21:30:29 10° SW
NOSS 3-2 (A) 3.9 21:21:29 10° WSW 21:27:18 65° NW 21:34:05 10° NE
Cosmos 540 Rocket 3.4 21:22:15 10° NNW 21:27:27 84° WSW 21:29:45 34° SSE
Cosmos 2237 Rocket 4.3 21:23:56 10° N 21:27:51 19° NE 21:31:44 10° ENE
ERBS 4.1 21:25:24 10° NW 21:28:20 28° NNE 21:30:18 16° ENE
Lacrosse 4 Rocket 3.2 21:29:56 18° E 21:29:56 18° E 21:31:39 10° ENE
SPOT 1/Viking Rocket 4.3 21:25:43 19° SSW 21:29:17 48° W 21:34:23 10° NNW
Resurs 01 Rocket 4.1 21:27:21 10° SW 21:30:15 17° W 21:33:12 10° NW
NOSS 3-2 (C) 3.5 21:30:42 10° SW 21:36:32 81° NW 21:43:18 10° NE
Cosmos 2333 Rocket 3.0 21:31:27 10° NNW 21:36:58 43° NE 21:39:44 26° ESE
Cosmos 1850 Rocket 4.3 21:32:12 10° SSW 21:37:28 68° WNW 21:42:44 10° NNE
ERS-1 Rocket 3.4 21:36:12 27° SSW 21:38:51 56° W 21:43:48 10° NNW
Cosmos 2061 Rocket 4.1 21:37:26 33° SSE 21:40:06 57° E 21:46:10 10° NNE
Meteor 1-11 Rocket 3.9 21:42:34 37° SSE 21:44:33 56° E 21:50:13 10° NNE
Cosmos 841 Rocket 3.8 21:40:18 10° NNW 21:45:27 59° WSW 21:47:34 34° S
Meteor 1-5 Rocket 4.3 21:42:13 28° S 21:45:29 81° E 21:51:25 10° NNE
CARTOSAT-1 4.5 21:44:02 27° SSW 21:45:54 43° W 21:50:04 10° NNW
Cosmos 1066 Rocket 4.5 21:40:19 10° N 21:45:56 54° ENE 21:47:48 37° SE
Cosmos 1802 Rocket 4.0 21:45:24 30° S 21:48:45 78° E 21:55:06 10° NNE
Okean 3 3.5 21:47:37 10° NNW 21:51:56 76° W 21:52:58 50° S
COSMOS 2487 4.0 21:55:26 25° ENE 21:55:26 25° ENE 21:57:16 10° NE
SL-4 R/B 1.9 21:51:31 10° W 21:55:20 71° N 21:55:57 56° ENE
Thor Agena Rocket 4.5 21:53:34 10° NE 21:58:03 30° E 21:58:13 30° E
USA 234 3.4 21:58:07 36° SSE 22:00:43 60° SW 22:07:12 10° WNW
Cosmos 1816 Rocket 4.4 21:54:35 10° N 22:00:53 80° E 22:03:14 41° SSE
Cosmos 1869 Rocket 4.3 22:01:01 27° SW 22:03:09 51° WNW 22:07:33 10° N
Meteor 2-4 Rocket 4.5 21:58:21 10° NNW 22:03:41 45° W 22:06:23 26° SSW
Spot 4 4.3 22:03:39 42° ESE 22:04:41 50° ENE 22:09:21 10° N
Iridium 4 Rocket 3.3 22:05:13 44° SW 22:06:19 62° W 22:10:28 10° N
ATLAS 3B R/B 2.5 22:01:44 19° SSW 22:06:34 70° SE 22:13:11 10° NE
JB-3 4.4 22:06:23 10° N 22:10:26 79° WNW 22:11:03 62° SW
Meteor 1-23 Rocket 4.2 22:06:16 10° N 22:12:08 81° ENE 22:13:53 48° SSE
Cosmos 1536 2.6 22:12:10 82° ESE 22:12:13 83° E 22:16:13 10° NNE
Meteor 1-13 Rocket 4.5 22:07:20 10° NNW 22:12:46 60° W 22:14:45 37° SSW
GENESIS II 4.1 22:09:24 10° NW 22:13:26 90° NE 22:13:27 89° ESE
SL-16 R/B 3.7 22:09:03 10° NW 22:13:43 27° WSW 22:16:06 20° SW
Cosmos 2219 Rocket 2.3 22:09:21 10° NNW 22:15:02 66° ENE 22:16:47 44° ESE
Cosmos 1674 Rocket 3.4 22:13:27 10° N 22:17:49 77° ENE 22:18:08 72° ESE
Terra 2.9 22:18:59 28° SW 22:20:32 35° W 22:24:56 10° NNW
Cosmos 2322 3.6 22:16:28 10° NNW 22:22:11 83° WSW 22:23:35 53° SSE
Lacrosse 5 3.8 22:21:32 10° W 22:24:29 16° WSW 22:24:47 16° SW
Tsikada Rocket 4.0 22:19:44 10° NNW 22:26:07 79° W 22:28:15 44° S
Cosmos 1833 4.1 22:24:31 43° SSW 22:26:29 85° ESE 22:32:13 10° NNE
MOS 1-B Rocket 3.7 22:22:43 10° NNE 22:28:23 78° ESE 22:29:54 50° S
Okean 2 4.2 22:27:59 10° N 22:31:45 39° ENE 22:31:45 39° ENE
Cosmos 2322 Rocket 3.8 22:27:54 10° NW 22:32:20 24° WSW 22:34:18 20° SW
FALCON 9 DEB 3.9 22:28:58 10° WNW 22:32:01 51° NNW 22:32:01 51° NNW
Cosmos 489 Rocket 4.4 22:27:33 10° NNW 22:33:56 85° ENE 22:35:44 50° SSE
Geosat 3.9 22:33:13 62° SSE 22:34:06 90° NE 22:39:10 10° NNW
Cosmos 1486 Rocket 3.9 22:33:50 63° SSE 22:34:24 69° ESE 22:39:36 10° NNE
Cosmos 1733 Rocket 3.1 22:34:35 63° WSW 22:35:05 70° WNW 22:39:31 10° N
ALOS 2 3.0 22:35:05 48° E 22:35:20 49° ENE 22:39:35 10° N
Cosmos 2333 4.3 22:31:09 10° NNW 22:36:55 66° WSW 22:38:07 53° SSW
CENTAUR R/B 3.6 22:31:04 10° WSW 22:37:11 49° NNW 22:44:27 10° NE
SL-16 R/B 4.1 22:37:33 10° NNW 22:42:02 23° NE 22:46:19 11° E
Cosmos 1975 4.1 22:43:45 31° ENE 22:43:45 31° ENE 22:46:37 10° NNE
Cosmos 2360 Rocket 3.2 22:38:08 10° NW 22:43:11 34° WSW 22:44:24 31° SW
Cosmos 1666 4.0 22:46:48 31° W 22:47:11 32° WNW 22:50:38 10° N
Cosmos 1242 Rocket 4.0 22:47:46 10° NNW 22:50:37 32° WNW 22:50:37 32° WNW
Cosmos 1725 Rocket 4.5 22:49:23 32° SW 22:52:15 57° WNW 22:58:30 10° N
Cosmos 773 Rocket 4.5 22:48:49 10° NNW 22:53:50 49° ENE 22:54:50 43° E
Cosmos 968 Rocket 3.3 22:58:02 70° SSW 22:58:39 89° WNW 23:03:49 10° NNE
Helios 1A 4.0 22:59:36 35° ENE 22:59:44 35° ENE 23:03:36 10° N
Cosmos 1782 Rocket 4.2 23:00:31 46° ENE 23:00:31 46° ENE 23:04:10 10° NNE
Cosmos 44 Rocket 3.3 22:55:56 10° NW 23:00:53 66° SW 23:00:55 66° SW
Cosmos 2297 Rocket 3.6 23:02:01 23° E 23:02:01 23° E 23:05:54 10° NE
Cosmos 1743 3.2 23:03:24 60° NNW 23:03:24 60° NNW 23:06:48 10° N
COSMOS 2428 2.7 22:57:22 10° NNW 23:03:05 67° WSW 23:03:51 59° SSW
Cosmos 1378 4.3 22:59:58 10° NNW 23:02:53 38° WNW 23:02:53 38° WNW
Meteor 2-9 Rocket 4.4 23:03:15 52° ESE 23:03:50 54° E 23:09:26 10° NNE
Cosmos 1980 3.9 22:59:06 10° NNW 23:04:45 62° ENE 23:06:09 48° ESE
ERBS 4.3 23:01:39 10° WNW 23:03:12 25° NW 23:03:12 25° NW
Lacrosse 4 Rocket 2.1 23:06:11 47° W 23:06:46 51° NW 23:10:52 10° NNE
USA 267 3.7 23:00:33 10° ENE 23:06:59 61° NNW 23:13:23 10° W
Cosmos 1908 Rocket 3.5 23:07:34 79° NW 23:07:34 79° NW 23:11:46 10° N
Cosmos 1378 Rocket 4.4 23:06:11 10° NNW 23:10:22 41° W 23:10:23 41° W
Cosmos 1271 Rocket 3.8 23:07:38 10° NNW 23:10:34 38° WNW 23:10:34 38° WNW
Cosmos 2219 4.2 23:13:13 31° E 23:13:13 31° E 23:17:48 10° NE
Cosmos 2237 Rocket 2.3 23:07:23 10° NNW 23:13:03 67° ENE 23:14:16 52° ESE
BREEZE-M DEB (TANK) 4.3 23:09:02 10° W 23:18:41 47° SW 23:18:41 47° SW
Cosmos 1544 4.0 23:21:39 47° N 23:21:39 47° N 23:24:25 10° N
Cosmos 2333 Rocket 2.8 23:15:53 10° NW 23:21:15 41° WSW 23:21:43 40° WSW
Timation 2 Rocket 4.0 23:26:06 55° SE 23:26:36 57° ESE 23:32:29 10° NE
Cosmos 1975 Rocket 3.2 23:26:09 10° NNW 23:30:20 69° WNW 23:30:20 69° WNW
Cosmos 1300 Rocket 4.5 23:34:20 38° ENE 23:34:20 38° ENE 23:37:49 10° NNE
Cosmos 1354 Rocket 4.0 23:33:47 66° SW 23:34:28 78° WNW 23:39:51 10° NNE
SL-4 R/B 4.5 23:31:18 10° WNW 23:31:31 11° WNW 23:31:31 11° WNW
Thor Agena Rocket 4.3 23:32:41 10° N 23:37:31 45° WNW 23:38:48 37° WSW
Cosmos 1464 Rocket 3.9 23:39:31 60° SSW 23:40:45 88° W 23:46:59 10° N
Helios 1B rocket 4.1 23:42:17 10° NE 23:45:01 24° ENE 23:45:01 24° ENE
CZ-2D R/B 4.4 23:44:35 10° ENE 23:46:38 12° E 23:48:16 11° ESE
Cosmos 1707 3.4 23:44:11 10° N 23:47:18 54° N 23:47:18 54° N
Okean 2 Rocket 3.4 23:50:15 61° ENE 23:50:15 61° ENE 23:54:22 10° NNE
Nadezhda 4 Rocket 3.9 23:44:28 10° N 23:50:48 86° W 23:52:00 61° S
Cosmos 2227 Rocket 2.6 23:51:25 45° ESE 23:51:33 45° ESE 23:56:56 10° NE
Cosmos 1777 Rocket 4.0 23:52:43 64° ESE 23:52:50 65° ESE 23:58:06 10° NNE
Cosmos 1025 Rocket 3.2 23:49:28 10° N 23:53:18 68° NNE 23:53:18 68° NNE
SJ 16-02 3.3 23:55:08 20° E 23:55:08 20° E 23:57:48 10° NE
